FW6726 Weather Reports


Display with metric or nautical units.
time (UTC)temp
F
wind
direction
speed
MPH
gust
MPH
rain 1hr
in
rain 24hr
in
rain mn
in
humidity
%
barometer
mb
20260902010732 77 62 3.0 4.0 0.00 0.00 0.00 49 1016.2
20260902010232 77 78 3.0 5.0 0.00 0.00 0.00 50 1016.2
20260902005731 78 87 3.0 5.0 0.00 0.00 0.00 51 1016.2
20260902005232 78 75 4.0 6.0 0.00 0.00 0.00 50 1016.3
20260902004732 78 76 4.0 6.0 0.00 0.00 0.00 50 1016.3
20260902004232 80 78 5.0 6.0 0.00 0.00 0.00 48 1016.3
20260902003731 80 80 4.0 6.0 0.00 0.00 0.00 47 1016.3
20260902003230 81 92 4.0 6.0 0.00 0.00 0.00 46 1016.3
20260902002956 81 89 4.0 6.0 0.00 0.00 0.00 43 1016.4
20260902002231 82 104 2.0 6.0 0.00 0.00 0.00 42 1016.4
20260902001732 82 89 4.0 6.0 0.00 0.00 0.00 42 1016.4
20260902001232 82 100 3.0 5.0 0.00 0.00 0.00 42 1016.5
20260902000731 82 110 2.0 6.0 0.00 0.00 0.00 43 1016.5
20260902000233 81 85 3.0 6.0 0.00 0.00 0.00 42 1016.5
20260901235731 82 110 3.0 5.0 0.00 0.00 0.00 42 1016.6
20260901235231 81 97 2.0 5.0 0.00 0.00 0.00 43 1016.6
20260901234731 81 113 3.0 7.0 0.00 0.00 0.00 42 1016.7
20260901234233 80 94 4.0 7.0 0.00 0.00 0.00 43 1016.8
20260901233733 80 106 2.0 5.0 0.00 0.00 0.00 45 1016.9
20260901233232 79 86 3.0 7.0 0.00 0.00 0.00 46 1016.9
20260901232734 79 66 5.0 7.0 0.00 0.00 0.00 47 1016.9
20260901232450 78 96 3.0 6.0 0.00 0.00 0.00 47 1017.0
20260901231733 78 85 4.0 9.0 0.00 0.00 0.00 49 1017.1
20260901231231 78 87 5.0 10.0 0.00 0.00 0.00 49 1017.1
20260901230733 77 97 4.0 10.0 0.00 0.00 0.00 52 1017.1
20260901230231 77 65 5.0 7.0 0.00 0.00 0.00 51 1017.2
20260901225730 78 83 5.0 9.0 0.00 0.00 0.00 48 1017.3
20260901225231 78 85 6.0 11.0 0.00 0.00 0.00 50 1017.4
20260901224728 78 78 6.0 11.0 0.00 0.00 0.00 50 1017.4
20260901224228 78 102 4.0 11.0 0.00 0.00 0.00 49 1017.5
20260901223723 78 90 6.0 9.0 0.00 0.00 0.00 49 1017.4
20260901223448 79 100 5.0 10.0 0.00 0.00 0.00 48 1017.5
20260901222723 80 63 8.0 10.0 0.00 0.00 0.00 48 1017.6
20260901222224 80 99 3.0 9.0 0.00 0.00 0.00 47 1017.7
20260901221722 80 90 4.0 10.0 0.00 0.00 0.00 49 1017.7
20260901221219 80 90 6.0 10.0 0.00 0.00 0.00 47 1017.7
20260901220943 80 120 3.0 7.0 0.00 0.00 0.00 48 1017.7
20260901220216 80 111 6.0 7.0 0.00 0.00 0.00 48 1017.8
20260901215709 80 147 2.0 7.0 0.00 0.00 0.00 49 1017.8
20260901215203 80 118 4.0 7.0 0.00 0.00 0.00 50 1017.9
20260901214703 80 113 3.0 11.0 0.00 0.00 0.00 51 1018.1
20260901214202 79 96 4.0 11.0 0.00 0.00 0.00 51 1017.9
20260901213705 80 83 5.0 11.0 0.00 0.00 0.00 52 1018.1
20260901213203 80 83 6.0 11.0 0.00 0.00 0.00 52 1018.2
20260901212704 80 87 5.0 10.0 0.00 0.00 0.00 51 1018.1
20260901212203 80 103 5.0 10.0 0.00 0.00 0.00 52 1018.1
20260901212148 80 94 4.0 9.0 0.00 0.00 0.00 52 1018.2
20260901211203 80 131 3.0 6.0 0.00 0.00 0.00 52 1018.2
20260901210703 80 128 2.0 6.0 0.00 0.00 0.00 53 1018.3
20260901210151 79 130 4.0 9.0 0.00 0.00 0.00 53 1018.4
20260901205915 79 100 3.0 9.0 0.00 0.00 0.00 54 1018.3
20260901205150 78 92 5.0 9.0 0.00 0.00 0.00 55 1018.4
20260901204915 78 144 4.0 9.0 0.00 0.00 0.00 54 1018.6
20260901204150 79 99 5.0 9.0 0.00 0.00 0.00 54 1018.6
20260901203651 78 97 4.0 9.0 0.00 0.00 0.00 55 1018.6
20260901203150 78 93 5.0 9.0 0.00 0.00 0.00 55 1018.6
20260901202651 78 107 3.0 10.0 0.00 0.00 0.00 56 1018.6
20260901202150 78 93 3.0 10.0 0.00 0.00 0.00 56 1018.6
20260901201651 78 93 3.0 9.0 0.00 0.00 0.00 57 1018.6
20260901201149 78 107 4.0 9.0 0.00 0.00 0.00 56 1018.6
20260901200650 78 97 4.0 9.0 0.00 0.00 0.00 57 1018.5
20260901200148 78 127 3.0 10.0 0.00 0.00 0.00 57 1018.6
20260901195649 78 90 4.0 10.0 0.00 0.00 0.00 57 1018.6
20260901195148 78 100 3.0 9.0 0.00 0.00 0.00 57 1018.7
20260901194649 78 82 4.0 9.0 0.00 0.00 0.00 57 1018.6
20260901194409 78 102 3.0 10.0 0.00 0.00 0.00 57 1018.6
20260901193648 78 89 5.0 10.0 0.00 0.00 0.00 57 1018.6
20260901193147 78 103 3.0 10.0 0.00 0.00 0.00 57 1018.7
20260901192649 78 69 6.0 10.0 0.00 0.00 0.00 57 1018.7
20260901192147 78 110 4.0 10.0 0.00 0.00 0.00 57 1018.8
20260901191910 78 107 5.0 10.0 0.00 0.00 0.00 58 1018.9
20260901191146 77 93 4.0 10.0 0.00 0.00 0.00 58 1018.9
20260901190648 77 113 3.0 10.0 0.00 0.00 0.00 57 1019.0
20260901190147 77 131 4.0 10.0 0.00 0.00 0.00 58 1019.0
20260901185649 78 135 5.0 10.0 0.00 0.00 0.00 56 1019.0
20260901185147 78 102 3.0 7.0 0.00 0.00 0.00 58 1019.1
20260901184648 77 127 3.0 7.0 0.00 0.00 0.00 57 1019.2
20260901184146 77 97 3.0 9.0 0.00 0.00 0.00 56 1019.2
20260901183906 78 121 4.0 11.0 0.00 0.00 0.00 56 1019.2
20260901183147 78 104 4.0 11.0 0.00 0.00 0.00 57 1019.2
20260901182647 78 148 3.0 6.0 0.00 0.00 0.00 56 1019.2
20260901182146 78 130 3.0 6.0 0.00 0.00 0.00 57 1019.1
20260901181646 78 137 2.0 6.0 0.00 0.00 0.00 58 1019.1
20260901181632 77 102 2.0 6.0 0.00 0.00 0.00 59 1019.0
20260901180645 77 173 3.0 6.0 0.00 0.00 0.00 59 1019.0
20260901180146 76 138 3.0 6.0 0.00 0.00 0.00 60 1018.9
20260901175646 76 133 3.0 6.0 0.00 0.00 0.00 61 1018.9
20260901175145 76 110 2.0 7.0 0.00 0.00 0.00 62 1018.8
20260901174645 75 148 3.0 7.0 0.00 0.00 0.00 62 1018.9
20260901174144 75 113 2.0 7.0 0.00 0.00 0.00 63 1018.8
20260901173645 75 107 3.0 9.0 0.00 0.00 0.00 63 1018.8
20260901173145 75 87 4.0 9.0 0.00 0.00 0.00 63 1018.6
20260901172644 74 137 3.0 7.0 0.00 0.00 0.00 64 1018.5
20260901172145 74 73 5.0 7.0 0.00 0.00 0.00 62 1018.6
20260901171644 74 149 4.0 7.0 0.00 0.00 0.00 63 1018.5
20260901171144 74 111 3.0 9.0 0.00 0.00 0.00 64 1018.5
20260901170644 74 93 4.0 9.0 0.00 0.00 0.00 64 1018.5
20260901170144 74 90 3.0 6.0 0.00 0.00 0.00 64 1018.4
20260901165904 74 92 3.0 6.0 0.00 0.00 0.00 63 1018.4
20260901165145 74 131 3.0 6.0 0.00 0.00 0.00 63 1018.4
20260901164644 73 99 4.0 6.0 0.00 0.00 0.00 63 1018.4
20260901164143 73 111 3.0 5.0 0.00 0.00 0.00 64 1018.3
20260901163643 72 113 2.0 5.0 0.00 0.00 0.00 64 1018.3
20260901163143 72 99 3.0 5.0 0.00 0.00 0.00 65 1018.1
20260901162644 72 106 2.0 6.0 0.00 0.00 0.00 67 1018.1
20260901162144 71 123 3.0 6.0 0.00 0.00 0.00 67 1018.1
20260901161643 71 103 3.0 6.0 0.00 0.00 0.00 68 1018.1
20260901161412 71 113 2.0 5.0 0.00 0.00 0.00 70 1018.1
20260901160643 70 93 3.0 5.0 0.00 0.00 0.00 70 1017.9
20260901160406 70 102 3.0 5.0 0.00 0.00 0.00 71 1017.8
20260901155643 70 103 2.0 5.0 0.00 0.00 0.00 72 1017.9
20260901155143 69 106 1.0 3.0 0.00 0.00 0.00 73 1017.8
20260901154911 68 97 1.0 4.0 0.00 0.00 0.00 74 1017.8
20260901154144 68 94 2.0 4.0 0.00 0.00 0.00 75 1017.8
20260901153644 67 79 1.0 2.0 0.00 0.00 0.00 76 1017.9
20260901153143 67 79 1.0 2.0 0.00 0.00 0.00 76 1017.8
20260901152905 66 79 0.0 3.0 0.00 0.00 0.00 78 1017.7
20260901152143 65 82 1.0 4.0 0.00 0.00 0.00 79 1017.7
20260901151642 65 82 1.0 4.0 0.00 0.00 0.00 80 1017.6
20260901151141 64 23 0.0 3.0 0.00 0.00 0.00 81 1017.7
20260901150642 63 323 0.0 0.0 0.00 0.00 0.00 82 1017.6
20260901150139 63 323 0.0 0.0 0.00 0.00 0.00 81 1017.5
20260901145640 63 324 0.0 1.0 0.00 0.00 0.00 82 1017.5
20260901145357 62 323 0.0 2.0 0.00 0.00 0.00 82 1017.5
20260901144634 62 323 1.0 2.0 0.00 0.00 0.00 83 1017.5
20260901144131 62 323 0.0 1.0 0.00 0.00 0.00 83 1017.5
20260901143632 61 323 0.0 3.0 0.00 0.00 0.00 84 1017.4
20260901143127 61 323 1.0 4.0 0.00 0.00 0.00 84 1017.2
20260901142848 60 323 2.0 4.0 0.00 0.00 0.00 85 1017.3
20260901142120 60 314 3.0 6.0 0.00 0.00 0.00 85 1017.1
20260901141617 60 313 4.0 6.0 0.00 0.00 0.00 85 1017.1
20260901141113 60 296 6.0 6.0 0.00 0.00 0.00 85 1017.0
20260901140613 60 296 5.0 6.0 0.00 0.00 0.00 85 1016.9
20260901140103 60 292 5.0 6.0 0.00 0.00 0.00 85 1016.7
20260901135603 60 272 4.0 5.0 0.00 0.00 0.00 85 1016.7
20260901135319 60 271 4.0 5.0 0.00 0.00 0.00 85 1016.6
20260901134603 60 305 4.0 4.0 0.00 0.00 0.00 85 1016.5
20260901134102 60 312 2.0 4.0 0.00 0.00 0.00 86 1016.5
20260901133602 60 312 2.0 3.0 0.00 0.00 0.00 86 1016.5
20260901133102 60 312 0.0 1.0 0.00 0.00 0.00 86 1016.5
20260901132603 60 312 0.0 1.0 0.00 0.00 0.00 86 1016.4
20260901132542 60 312 0.0 1.0 0.00 0.00 0.00 86 1016.4
20260901131602 60 312 0.0 3.0 0.00 0.00 0.00 86 1016.5
20260901131322 60 312 1.0 4.0 0.00 0.00 0.00 86 1016.4
20260901130601 60 312 2.0 5.0 0.00 0.00 0.00 86 1016.4
20260901130058 60 302 4.0 5.0 0.00 0.00 0.00 86 1016.4
20260901125558 60 299 4.0 6.0 0.00 0.00 0.00 87 1016.4
20260901125056 60 286 4.0 7.0 0.00 0.00 0.00 87 1016.5
20260901124548 60 303 5.0 7.0 0.00 0.00 0.00 87 1016.4
20260901124048 60 298 5.0 6.0 0.00 0.00 0.00 87 1016.5
20260901123548 60 292 4.0 6.0 0.00 0.00 0.00 87 1016.5
20260901123040 60 300 5.0 6.0 0.00 0.00 0.00 87 1016.4
20260901122541 60 279 5.0 5.0 0.00 0.00 0.00 86 1016.5
20260901122259 60 299 3.0 4.0 0.00 0.00 0.00 86 1016.4
20260901121539 61 320 3.0 3.0 0.00 0.00 0.00 86 1016.3
20260901121039 61 321 2.0 3.0 0.00 0.00 0.00 86 1016.2
20260901120539 61 321 1.0 2.0 0.00 0.00 0.00 86 1016.2
20260901120041 61 321 0.0 0.0 0.00 0.00 0.00 86 1016.2
20260901115539 61 321 0.0 0.0 0.00 0.00 0.00 86 1016.2
20260901115039 61 321 0.0 0.0 0.00 0.00 0.00 86 1016.2
20260901114538 61 321 0.0 0.0 0.00 0.00 0.00 85 1016.2
20260901114038 61 321 0.0 0.0 0.00 0.00 0.00 85 1016.2
20260901113538 61 321 0.0 0.0 0.00 0.00 0.00 85 1016.3
20260901113258 61 321 0.0 0.0 0.00 0.00 0.00 85 1016.3
20260901112805 61 321 0.0 0.0 0.00 0.00 0.00 84 1016.4
20260901112310 61 321 0.0 0.0 0.00 0.00 0.00 84 1016.4
20260901111537 61 321 0.0 0.0 0.00 0.00 0.00 84 1016.2
20260901111037 61 321 0.0 0.0 0.00 0.00 0.00 85 1016.2
20260901110537 61 321 0.0 0.0 0.00 0.00 0.00 85 1016.1
20260901110037 62 321 0.0 0.0 0.00 0.00 0.00 85 1016.1
20260901105803 61 321 0.0 0.0 0.00 0.00 0.00 85 1016.2
20260901105306 61 321 0.0 3.0 0.00 0.00 0.00 85 1016.2
20260901104532 61 321 1.0 4.0 0.00 0.00 0.00 85 1016.1
20260901104033 61 321 2.0 4.0 0.00 0.00 0.00 85 1016.2
20260901103754 61 321 3.0 4.0 0.00 0.00 0.00 85 1016.2
20260901103032 61 321 2.0 4.0 0.00 0.00 0.00 85 1016.2
20260901102532 61 306 3.0 5.0 0.00 0.00 0.00 85 1016.3
20260901102032 61 286 4.0 5.0 0.00 0.00 0.00 85 1016.3
20260901101528 61 283 3.0 5.0 0.00 0.00 0.00 85 1016.2
20260901101024 61 295 4.0 5.0 0.00 0.00 0.00 85 1016.2
20260901100523 61 293 4.0 5.0 0.00 0.00 0.00 85 1016.3
20260901100022 61 293 4.0 6.0 0.00 0.00 0.00 85 1016.3
20260901095513 61 285 4.0 6.0 0.00 0.00 0.00 84 1016.3
20260901095003 61 289 4.0 5.0 0.00 0.00 0.00 84 1016.4
20260901094502 61 276 3.0 5.0 0.00 0.00 0.00 84 1016.4
20260901094003 61 276 4.0 5.0 0.00 0.00 0.00 84 1016.4
20260901093503 61 279 4.0 5.0 0.00 0.00 0.00 84 1016.4
20260901093003 61 278 4.0 5.0 0.00 0.00 0.00 84 1016.4
20260901092503 61 278 4.0 5.0 0.00 0.00 0.00 83 1016.3
20260901092003 61 279 4.0 5.0 0.00 0.00 0.00 83 1016.2
20260901091504 61 279 3.0 4.0 0.00 0.00 0.00 83 1016.2
20260901091004 61 286 2.0 3.0 0.00 0.00 0.00 83 1016.3
20260901090503 62 286 2.0 4.0 0.00 0.00 0.00 83 1016.3
20260901090003 62 286 3.0 4.0 0.00 0.00 0.00 83 1016.3
20260901085503 62 286 2.0 4.0 0.00 0.00 0.00 83 1016.2
20260901085227 62 62 2.0 3.0 0.00 0.00 0.00 83 1016.2
20260901084725 62 62 2.0 2.0 0.00 0.00 0.00 83 1016.2
20260901084003 62 62 1.0 3.0 0.00 0.00 0.00 83 1016.2
20260901083504 62 62 2.0 3.0 0.00 0.00 0.00 83 1016.2
20260901083003 62 63 1.0 3.0 0.00 0.00 0.00 83 1016.2
20260901082458 62 63 2.0 3.0 0.00 0.00 0.00 83 1016.3
20260901081953 62 65 2.0 3.0 0.00 0.00 0.00 83 1016.4
20260901081455 62 66 0.0 0.0 0.00 0.00 0.00 83 1016.4
20260901080955 62 66 0.0 0.0 0.00 0.00 0.00 83 1016.4
20260901080454 62 66 0.0 0.0 0.00 0.00 0.00 82 1016.4
20260901075952 62 66 0.0 0.0 0.00 0.00 0.00 82 1016.4
20260901075450 63 66 0.0 0.0 0.00 0.00 0.00 82 1016.3
20260901074949 63 66 0.0 1.0 0.00 0.00 0.00 82 1016.2
20260901074434 63 66 0.0 1.0 0.00 0.00 0.00 82 1016.2
20260901073932 63 66 0.0 1.0 0.00 0.00 0.00 82 1016.1
20260901073434 63 66 0.0 3.0 0.00 0.00 0.00 82 1016.1
20260901072932 63 66 1.0 3.0 0.00 0.00 0.00 82 1016.1
20260901072432 63 66 0.0 0.0 0.00 0.00 0.00 81 1016.1
20260901071931 63 66 0.0 2.0 0.00 0.00 0.00 81 1016.2
20260901071432 63 66 0.0 4.0 0.00 0.00 0.00 81 1016.2
20260901070931 63 66 2.0 4.0 0.00 0.00 0.00 81 1016.2
20260901070430 63 66 2.0 3.0 0.00 0.00 0.00 81 1016.2
20260901065930 64 66 2.0 4.0 0.00 0.00 0.00 81 1016.2
20260901065655 64 66 2.0 4.0 0.00 0.00 0.00 80 1016.3
20260901064930 64 66 3.0 4.0 0.00 0.00 0.00 80 1016.2
20260901064431 64 68 2.0 3.0 0.00 0.00 0.00 79 1016.2
20260901063930 64 68 0.0 0.0 0.00 0.00 0.00 79 1016.2
20260901063430 64 68 0.0 0.0 0.00 0.00 0.00 77 1016.1
20260901062930 64 68 0.0 0.0 0.00 0.00 0.00 77 1016.2
20260901062430 64 68 0.0 1.0 0.00 0.00 0.00 77 1016.2
20260901061930 64 68 0.0 2.0 0.00 0.00 0.00 77 1016.1
20260901061429 64 68 1.0 2.0 0.00 0.00 0.00 76 1016.1
20260901061158 64 68 1.0 2.0 0.00 0.00 0.00 76 1016.1
20260901060429 65 44 1.0 2.0 0.00 0.00 0.00 76 1015.9
20260901055929 65 23 1.0 2.0 0.00 0.00 0.00 76 1015.9
20260901055426 65 16 0.0 3.0 0.00 0.00 0.00 76 1015.8
20260901055149 65 16 2.0 3.0 0.00 0.00 0.00 76 1015.7
20260901054416 65 16 2.0 3.0 0.00 0.00 0.00 76 1015.7
20260901054126 65 16 2.0 2.0 0.00 0.00 0.00 76 1015.7
20260901053404 65 16 1.0 2.0 0.00 0.00 0.00 76 1015.7
20260901053351 65 16 2.0 3.0 0.00 0.00 0.00 76 1015.7
20260901052402 65 16 2.0 3.0 0.00 0.00 0.00 76 1015.7
20260901052126 65 16 1.0 2.0 0.00 0.00 0.00 76 1015.8
20260901051403 65 16 0.0 0.0 0.00 0.00 0.00 76 1015.8
20260901050902 65 16 0.0 2.0 0.00 0.00 0.00 75 1015.8
20260901050355 65 16 0.0 2.0 0.00 0.00 0.00 75 1015.8
20260901045855 65 17 1.0 2.0 0.00 0.00 0.00 75 1015.9
20260901045355 66 0 0.0 1.0 0.00 0.00 0.00 76 1015.8
20260901044835 66 0 0.0 2.0 0.00 0.00 0.00 76 1015.6
20260901044604 65 0 1.0 2.0 0.00 0.00 0.00 76 1015.5
20260901043835 65 0 1.0 2.0 0.00 0.00 0.00 76 1015.5
20260901043551 65 0 1.0 3.0 0.00 0.00 0.00 76 1015.5
20260901042835 65 0 0.0 3.0 0.00 0.00 0.00 76 1015.5
20260901042334 65 0 1.0 4.0 0.00 0.00 0.00 76 1015.5
20260901041834 65 0 1.0 4.0 0.00 0.00 0.00 76 1015.5
20260901041333 65 0 2.0 4.0 0.00 0.00 0.00 76 1015.6
20260901040834 65 0 2.0 3.0 0.00 0.00 0.00 76 1015.7
20260901040333 65 0 2.0 3.0 0.00 0.00 0.00 76 1015.7
20260901035833 65 0 1.0 3.0 0.00 0.00 0.00 76 1015.7
20260901035332 65 0 1.0 2.0 0.00 0.00 0.00 76 1015.8
20260901034834 65 0 1.0 2.0 0.00 0.00 0.00 76 1015.7
20260901034333 65 0 1.0 4.0 0.00 0.00 0.00 76 1015.6
20260901034250 65 314 1.0 4.0 0.00 0.00 0.00 76 1015.6
20260901034242 65 314 3.0 5.0 0.00 0.00 0.00 75 1015.5
20260901032827 65 312 4.0 5.0 0.00 0.00 0.00 75 1015.5
20260901032325 65 310 3.0 5.0 0.00 0.00 0.00 75 1015.5
20260901031827 66 327 3.0 4.0 0.00 0.00 0.00 73 1015.4
20260901031326 66 58 0.0 1.0 0.00 0.00 0.00 73 1015.5
20260901031048 66 58 0.0 1.0 0.00 0.00 0.00 73 1015.4
20260901030324 67 58 0.0 1.0 0.00 0.00 0.00 72 1015.4
20260901030043 67 58 0.0 1.0 0.00 0.00 0.00 72 1015.2
20260901025547 67 58 0.0 3.0 0.00 0.00 0.00 72 1015.3
20260901025049 67 58 1.0 5.0 0.00 0.00 0.00 72 1015.2
20260901024324 67 58 3.0 5.0 0.00 0.00 0.00 71 1015.2
20260901024044 68 83 1.0 2.0 0.00 0.00 0.00 70 1015.2
20260901023325 68 83 0.0 0.0 0.00 0.00 0.00 70 1015.2
20260901022824 68 83 0.0 0.0 0.00 0.00 0.00 70 1015.1
20260901022324 68 83 0.0 2.0 0.00 0.00 0.00 70 1015.2
20260901022047 68 83 0.0 2.0 0.00 0.00 0.00 70 1015.3
20260901021324 69 83 1.0 3.0 0.00 0.00 0.00 69 1015.2
20260901020824 69 83 2.0 3.0 0.00 0.00 0.00 68 1015.3
20260901020546 69 83 2.0 4.0 0.00 0.00 0.00 68 1015.3
20260901015824 69 83 2.0 4.0 0.00 0.00 0.00 68 1015.3
20260901015323 70 83 2.0 4.0 0.00 0.00 0.00 68 1015.3
20260901014823 70 85 2.0 5.0 0.00 0.00 0.00 67 1015.4
20260901014323 70 85 4.0 5.0 0.00 0.00 0.00 67 1015.4
20260901014045 71 80 3.0 5.0 0.00 0.00 0.00 67 1015.4
20260901013323 71 87 2.0 5.0 0.00 0.00 0.00 67 1015.4
20260901012822 71 87 4.0 5.0 0.00 0.00 0.00 66 1015.5
20260901012323 71 86 3.0 6.0 0.00 0.00 0.00 66 1015.4
20260901011823 71 86 3.0 6.0 0.00 0.00 0.00 64 1015.3
20260901011324 72 87 4.0 5.0 0.00 0.00 0.00 65 1015.3
20260901010824 72 86 4.0 6.0 0.00 0.00 0.00 64 1015.2